Terminal Aerodrome Forecast
Issued by NWS

Home | Current Version | Previous Version | Text Only | Print | Product List | Glossary On
Versions: 1 2 3 4 5 6 7 8 9 10 11 12 13 14 15 16 17
000
FTUS41 KGYX 231800 AAA
TAFHIE
TAF AMD
KHIE 231857Z 2319/2418 23010G18KT P6SM VCSH BKN050
     FM232000 24010G22KT 4SM -TSRA SCT025 OVC040CB
      TEMPO 2320/2323 27015G25KT 1SM +TSRA BKN025CB OVC040
     FM240000 VRB03KT P6SM SCT045 BKN100
     FM240600 00000KT 2SM BR BKN002
     FM241200 32006KT P6SM SCT040 BKN060=

USA.gov is the U.S. government's official web portal to all federal, state and local government web resources and services.